COSMOS 1275 DEB, 13800

Orbit data source: Space-Track

COSMOS 1275 DEB, 13800 is space debris in LEO originally from a launch on Thu, 04 Jun 1981 UTC launched from the Plesetsk Missile And Space Complex (PKMTR). Debris objects in space refer to the collection of defunct objects orbiting the Earth. Examples of debris include non-operational satellites, rocket bodies, and fragments generated from explosions, collisions, or faulty payload assembly.

Loading next visibility...
Identifier
13800, 1981-053GU
Orbit
LEO
Country
Flag of CISCIS
Related business
Manufacturer
Unknown
Mission
Spacecraft
Bus & Motor
Unknown
Mass
Unknown
Launch date (UTC)
1981-06-04 (45 years ago)
Launch vehicle
Unknown
Launch site
Plesetsk Missile And Space Complex (PKMTR)
Object type
Payload
Rocket body
Debris
Shape & HBR
Unknown shape, 0.1 m
Radar Cross Section
Small (<0.1 m²)

Expand to show TLE details & history
Last TLE update: 12 hours ago

TLE from 12 hours ago
0 COSMOS 1275 DEB
1 13800U 81053GU  26118.99729684  .00000758  00000-0  80738-3 0  9990
2 13800  83.2234 198.9562 0162748 137.7715  39.9095 13.67189410147349
Epoch: 2026-04-28T23:56Z
TLE epoch observation values (Epoch: 2026-04-28T23:56:06.446Z)
Latitude
0.98685°
Longitude
162.8481°
Altitude
921.027 km
Speed
7.437 km/s
True Right ascension
01h 15m 21s
True Declination
0° 58' 52"
Sunlit
Object was in daylight at epoch
Visualization orbit readout
Latitude
Unknown
Longitude
Unknown
Altitude
Unknown
Speed
Unknown
Apparent Right ascension
Unknown
Apparent Declination
Unknown
Sunlit
N/A
Visualization observer readout
Local Sidereal Time
19:43:01
Azimuth
Unknown
Elevation
Unknown
Doppler factor
Unknown
Orbital elements
Apogee altitude
1,127.016 km
Perigee altitude
886.638 km
Semi-major axis
7,384.964 km
Eccentricity
0.01627
Inclination
83.2234°
RAAN
198.9562°
Arg. of periapsis
137.7715°
True anomaly
41.12488°
Mean anomaly
39.9095°
Eccentric anomaly
40.51528°
Mean motion
3.41996 °/min
Orbital period
105.26 mins
BSTAR
0.00080738
Loading maneuver chart data...
Computing Atmospheric mass density...
Loading historical data...
Loading historical data...
Loading historical data...
Loading historical data...
Loading historical data...
Loading historical data...
Loading historical data...

Documentation

Showing up to 5 results
|